Karlovy Vary, Czech Republic

6:38 AM CET on February 11, 2016 (GMT +0100)
Karlovy Vary

Weather History for LKKV - October, 2013

Change the Weather History Date:

Thursday, October 31, 2013

  Actual Average (EDQM) Record (EDQM)
Temperature  
Mean Temperature 38 °F -  
Max Temperature 50 °F 46 °F 59 °F (2001)
Min Temperature 26 °F 37 °F 29 °F (2013)
Degree Days  
Heating Degree Days 27    
Moisture  
Dew Point 32 °F    
Average Humidity 77    
Maximum Humidity 100    
Minimum Humidity 43    
Precipitation  
Precipitation 0.00 in - - ()
Sea Level Pressure  
Sea Level Pressure 30.27 in    
Wind  
Wind Speed 4 mph ()    
Max Wind Speed 9 mph    
Max Gust Speed -    
Visibility 6.2 miles    
Events Fog    
Averages and records for this station are not official NWS values.
T = Trace of Precipitation, MM = Missing Value Source: Averaged Metar Reports

Daily Weather History Graph

Daily Weather History Graph

Search for Another Location

Airport or City:

Trip Planner

Search our weather history database for the weather conditions in past years. The results will help you decide how hot, cold, wet, or windy it might be!

Date:

Astronomy

Oct. 31, 2013 Rise Set
Actual Time 6:56 AM CET 4:46 PM CET
Civil Twilight 6:22 AM CET 5:20 PM CET
Nautical Twilight 5:44 AM CET 5:58 PM CET
Astronomical Twilight 5:06 AM CET 6:36 PM CET
Moon 3:09 AM CET (10/31) 3:10 PM CET (10/31)
Length of Visible Light 10h 57m
Length of Day
9h 49m
Waning Crescent, 11% of the Moon is Illuminated
Oct 31
Waning Crescent
Nov 3
New
Nov 10
First Quarter
Nov 17
Full
Nov 25
Last Quarter

Hourly Weather History & Observations

Time (CET) Temp. Windchill Dew Point Humidity Pressure Visibility Wind Dir Wind Speed Gust Speed Precip Events Conditions
12:00 AM 28.4 °F 23.3 °F 26.6 °F 93% 30.33 in - ESE 4.6 mph - N/A   Clear
1:00 AM 28.4 °F 23.3 °F 28.4 °F 100% 30.33 in - ESE 4.6 mph - N/A   Clear
2:00 AM 28.4 °F 24.6 °F 28.4 °F 100% 30.33 in - ESE 3.5 mph - N/A   Clear
3:00 AM 30.2 °F - 28.4 °F 93% 30.33 in - East 2.3 mph - N/A   Clear
4:00 AM 26.6 °F - 24.8 °F 93% 30.33 in - ESE 1.2 mph - N/A   Clear
5:00 AM 28.4 °F 24.6 °F 28.4 °F 100% 30.33 in - ESE 3.5 mph - N/A   Clear
6:00 AM 28.4 °F - 28.4 °F 100% 30.33 in 6.2 mi East 2.3 mph - N/A Fog Patches of Fog
7:00 AM 28.4 °F - 28.4 °F 100% 30.33 in 6.2 mi ENE 2.3 mph - N/A Fog Patches of Fog
7:30 AM 30.2 °F - 28.4 °F 93% 30.33 in 6.2 mi ENE 2.3 mph - N/A Fog Patches of Fog
8:00 AM 32.0 °F - 32.0 °F 100% 30.33 in - Variable 1.2 mph - N/A   Clear
8:30 AM 35.6 °F 32.8 °F 33.8 °F 93% 30.33 in - East 3.5 mph - N/A   Clear
9:00 AM 41.0 °F 39.0 °F 35.6 °F 81% 30.33 in - East 3.5 mph - N/A   Clear
9:30 AM 44.6 °F 42.2 °F 33.8 °F 66% 30.33 in - SE 4.6 mph - N/A   Clear
10:00 AM 46.4 °F 43.5 °F 33.8 °F 62% 30.33 in - SE 5.8 mph - N/A   Clear
10:30 AM 48.2 °F - 35.6 °F 62% 30.30 in - SE 6.9 mph - N/A   Clear
11:00 AM 46.4 °F 43.5 °F 33.8 °F 62% 30.30 in - SSE 5.8 mph - N/A   Clear
11:30 AM 48.2 °F - 33.8 °F 58% 30.30 in - SE 9.2 mph - N/A   Clear
12:00 PM 48.2 °F - 33.8 °F 58% 30.30 in 6.2 mi South 5.8 mph - N/A   Partly Cloudy
12:30 PM 50.0 °F - 33.8 °F 54% 30.27 in - South 5.8 mph - N/A   Clear
1:00 PM 50.0 °F - 32.0 °F 50% 30.27 in - SSE 6.9 mph - N/A   Clear
1:30 PM 50.0 °F - 32.0 °F 50% 30.27 in - SSE 5.8 mph - N/A   Clear
2:00 PM 50.0 °F - 32.0 °F 50% 30.24 in - SE 6.9 mph - N/A   Clear
2:30 PM 50.0 °F - 32.0 °F 50% 30.24 in - South 4.6 mph - N/A   Clear
3:00 PM 50.0 °F - 32.0 °F 50% 30.24 in - South 5.8 mph - N/A   Clear
3:30 PM 50.0 °F - 32.0 °F 50% 30.21 in - South 3.5 mph - N/A   Clear
4:00 PM 48 °F - 33 °F 43%  in 31 mi SSE 4.5 mph - -   Clear
4:00 PM 48.2 °F - 32.0 °F 54% 30.21 in - SSE 3.5 mph - N/A   Clear
4:30 PM 46.4 °F 45.2 °F 33.8 °F 62% 30.21 in - SSE 3.5 mph - N/A   Clear
5:00 PM 42.8 °F 41.1 °F 33.8 °F 70% 30.21 in - SE 3.5 mph - N/A   Clear
5:30 PM 39.2 °F 37.0 °F 33.8 °F 81% 30.21 in - SE 3.5 mph - N/A   Clear
6:00 PM 39.2 °F - 33.8 °F 81% 30.21 in - ESE 2.3 mph - N/A   Clear
6:30 PM 37.4 °F 34.9 °F 33.8 °F 87% 30.21 in - ESE 3.5 mph - N/A   Clear
7:00 PM 35.6 °F 31.7 °F 33.8 °F 93% 30.21 in - SE 4.6 mph - N/A   Clear
7:30 PM 35.6 °F 32.8 °F 33.8 °F 93% 30.18 in - SE 3.5 mph - N/A   Clear
8:00 PM 33.8 °F - 32.0 °F 93% 30.21 in - Variable 2.3 mph - N/A   Clear
9:00 PM 32.0 °F - 32.0 °F 100% 30.18 in - SE 2.3 mph - N/A   Clear
10:00 PM 32.0 °F - 32.0 °F 100% 30.18 in - Variable 2.3 mph - N/A   Clear
11:00 PM 30.2 °F 26.7 °F 30.2 °F 100% 30.18 in 6.2 mi South 3.5 mph - N/A Fog Patches of Fog